Time,TemperatureF,DewpointF,PressureIn,WindDirection,WindDirectionDegrees,WindSpeedMPH,WindSpeedGustMPH,Humidity,HourlyPrecipIn,Conditions,Clouds,dailyrainin,SoftwareType,DateUTC
2013-05-11 00:03:00,52.0,37.0,29.95,NW,326,0.0,1.0,58,0.00,,,0.00,weatherlink.com 1.10,2013-05-11 05:03:00,
2013-05-11 00:18:00,52.7,38.0,29.95,NW,326,0.0,2.0,58,0.00,,,0.00,weatherlink.com 1.10,2013-05-11 05:18:00,
2013-05-11 00:33:00,52.8,37.0,29.94,NW,326,0.0,1.0,56,0.00,,,0.00,weatherlink.com 1.10,2013-05-11 05:33:00,
2013-05-11 00:48:00,53.2,38.0,29.93,NW,326,2.0,2.0,56,0.00,,,0.00,weatherlink.com 1.10,2013-05-11 05:48:00,
2013-05-11 01:03:00,53.5,38.0,29.93,NW,326,0.0,3.0,57,0.00,,,0.00,weatherlink.com 1.10,2013-05-11 06:03:00,
2013-05-11 01:18:00,53.6,39.0,29.92,NW,312,2.0,4.0,58,0.00,,,0.00,weatherlink.com 1.10,2013-05-11 06:18:00,
2013-05-11 01:33:00,54.0,39.0,29.93,WNW,292,1.0,7.0,58,0.00,,,0.00,weatherlink.com 1.10,2013-05-11 06:33:00,
2013-05-11 01:49:00,54.6,40.0,29.94,WNW,301,15.0,16.0,58,0.00,,,0.00,weatherlink.com 1.10,2013-05-11 06:49:00,
2013-05-11 02:04:00,54.6,40.0,29.93,West,261,10.0,16.0,58,0.00,,,0.00,weatherlink.com 1.10,2013-05-11 07:04:00,
2013-05-11 02:19:00,54.1,41.0,29.94,NW,325,15.0,15.0,62,0.00,,,0.00,weatherlink.com 1.10,2013-05-11 07:19:00,
2013-05-11 02:34:00,53.4,41.0,29.94,NW,319,3.0,15.0,63,0.00,,,0.00,weatherlink.com 1.10,2013-05-11 07:34:00,
2013-05-11 02:49:00,52.3,40.0,29.95,NW,319,8.0,24.0,63,0.00,,,0.00,weatherlink.com 1.10,2013-05-11 07:49:00,
2013-05-11 03:04:00,51.3,40.0,29.95,North,349,20.0,21.0,65,0.00,,,0.00,weatherlink.com 1.10,2013-05-11 08:04:00,
2013-05-11 03:19:00,50.3,39.0,29.96,North,5,12.0,20.0,66,0.00,,,0.00,weatherlink.com 1.10,2013-05-11 08:19:00,
2013-05-11 03:34:00,49.2,39.0,29.96,NNW,337,10.0,17.0,67,0.00,,,0.00,weatherlink.com 1.10,2013-05-11 08:34:00,
2013-05-11 03:49:00,48.3,39.0,29.96,North,355,5.0,21.0,69,0.00,,,0.00,weatherlink.com 1.10,2013-05-11 08:49:00,
2013-05-11 04:04:00,47.6,38.0,29.97,WNW,292,7.0,24.0,70,0.00,,,0.00,weatherlink.com 1.10,2013-05-11 09:04:00,
2013-05-11 04:19:00,46.9,38.0,29.97,NNW,338,10.0,19.0,71,0.00,,,0.00,weatherlink.com 1.10,2013-05-11 09:19:00,
2013-05-11 04:34:00,46.4,38.0,29.98,NNW,346,12.0,21.0,72,0.00,,,0.00,weatherlink.com 1.10,2013-05-11 09:34:00,
2013-05-11 04:49:00,46.1,38.0,29.98,WNW,302,4.0,20.0,72,0.00,,,0.00,weatherlink.com 1.10,2013-05-11 09:49:00,
2013-05-11 05:04:00,45.4,37.0,29.98,NNW,347,9.0,16.0,73,0.00,,,0.00,weatherlink.com 1.10,2013-05-11 10:04:00,
2013-05-11 05:19:00,45.0,37.0,29.99,NW,309,8.0,15.0,73,0.00,,,0.00,weatherlink.com 1.10,2013-05-11 10:19:00,
2013-05-11 05:34:00,44.7,37.0,30.00,North,350,11.0,17.0,73,0.00,,,0.00,weatherlink.com 1.10,2013-05-11 10:34:00,
2013-05-11 05:49:00,44.0,36.0,30.01,North,11,5.0,16.0,73,0.00,,,0.00,weatherlink.com 1.10,2013-05-11 10:49:00,
2013-05-11 06:04:00,43.4,36.0,30.02,NNW,337,6.0,16.0,74,0.00,,,0.00,weatherlink.com 1.10,2013-05-11 11:04:00,
2013-05-11 06:19:00,42.9,35.0,30.03,NNW,338,5.0,16.0,74,0.00,,,0.00,weatherlink.com 1.10,2013-05-11 11:19:00,
2013-05-11 06:35:00,42.6,35.0,30.04,WNW,285,7.0,20.0,73,0.00,,,0.00,weatherlink.com 1.10,2013-05-11 11:35:00,
2013-05-11 06:50:00,42.5,34.0,30.05,NNW,341,9.0,22.0,72,0.00,,,0.00,weatherlink.com 1.10,2013-05-11 11:50:00,
2013-05-11 07:05:00,42.4,34.0,30.06,NNW,337,10.0,16.0,73,0.00,,,0.00,weatherlink.com 1.10,2013-05-11 12:05:00,
2013-05-11 07:20:00,42.7,34.0,30.06,NW,326,9.0,20.0,72,0.00,,,0.00,weatherlink.com 1.10,2013-05-11 12:20:00,
2013-05-11 07:35:00,43.1,34.0,30.07,NNW,347,11.0,23.0,70,0.00,,,0.00,weatherlink.com 1.10,2013-05-11 12:35:00,
2013-05-11 07:50:00,43.4,31.0,30.07,NNW,333,12.0,21.0,63,0.00,,,0.00,weatherlink.com 1.10,2013-05-11 12:50:00,
2013-05-11 08:05:00,43.7,30.0,30.08,NNW,334,12.0,23.0,60,0.00,,,0.00,weatherlink.com 1.10,2013-05-11 13:05:00,
2013-05-11 08:20:00,44.0,30.0,30.09,NNW,335,18.0,19.0,59,0.00,,,0.00,weatherlink.com 1.10,2013-05-11 13:20:00,
2013-05-11 08:35:00,44.7,30.0,30.09,NW,323,6.0,24.0,56,0.00,,,0.00,weatherlink.com 1.10,2013-05-11 13:35:00,
2013-05-11 08:50:00,44.9,29.0,30.09,NNW,341,17.0,23.0,53,0.00,,,0.00,weatherlink.com 1.10,2013-05-11 13:50:00,
2013-05-11 09:05:00,45.3,27.0,30.11,North,355,19.0,21.0,50,0.00,,,0.00,weatherlink.com 1.10,2013-05-11 14:05:00,
2013-05-11 09:20:00,45.8,28.0,30.11,NNW,331,15.0,23.0,50,0.00,,,0.00,weatherlink.com 1.10,2013-05-11 14:20:00,
2013-05-11 09:35:00,46.4,28.0,30.11,North,350,23.0,25.0,49,0.00,,,0.00,weatherlink.com 1.10,2013-05-11 14:35:00,
2013-05-11 09:50:00,46.3,27.0,30.11,NW,322,15.0,28.0,48,0.00,,,0.00,weatherlink.com 1.10,2013-05-11 14:50:00,
2013-05-11 10:05:00,47.0,27.0,30.11,North,360,20.0,24.0,46,0.00,,,0.00,weatherlink.com 1.10,2013-05-11 15:05:00,
2013-05-11 10:20:00,46.5,27.0,30.11,NNW,348,8.0,28.0,47,0.00,,,0.00,weatherlink.com 1.10,2013-05-11 15:20:00,
2013-05-11 10:35:00,47.7,28.0,30.11,NNW,340,11.0,24.0,47,0.00,,,0.00,weatherlink.com 1.10,2013-05-11 15:35:00,
2013-05-11 10:50:00,46.4,26.0,30.11,NNW,345,18.0,26.0,46,0.00,,,0.00,weatherlink.com 1.10,2013-05-11 15:50:00,
2013-05-11 11:05:00,47.3,27.0,30.12,North,349,11.0,27.0,46,0.00,,,0.00,weatherlink.com 1.10,2013-05-11 16:05:00,
2013-05-11 11:20:00,47.4,27.0,30.12,NNW,338,8.0,23.0,45,0.00,,,0.00,weatherlink.com 1.10,2013-05-11 16:20:00,
2013-05-11 11:35:00,47.7,27.0,30.12,NNW,338,9.0,30.0,44,0.00,,,0.00,weatherlink.com 1.10,2013-05-11 16:35:00,
2013-05-11 11:50:00,49.2,27.0,30.12,North,349,18.0,23.0,43,0.00,,,0.00,weatherlink.com 1.10,2013-05-11 16:50:00,
2013-05-11 12:05:00,49.0,27.0,30.12,North,350,12.0,28.0,42,0.00,,,0.00,weatherlink.com 1.10,2013-05-11 17:05:00,
2013-05-11 12:20:00,49.6,28.0,30.12,NNW,346,11.0,25.0,43,0.00,,,0.00,weatherlink.com 1.10,2013-05-11 17:20:00,
2013-05-11 12:35:00,49.9,27.0,30.12,North,351,12.0,25.0,42,0.00,,,0.00,weatherlink.com 1.10,2013-05-11 17:35:00,
2013-05-11 12:50:00,49.2,26.0,30.12,North,355,9.0,25.0,40,0.00,,,0.00,weatherlink.com 1.10,2013-05-11 17:50:00,
2013-05-11 13:05:00,49.0,25.0,30.12,NNW,329,6.0,23.0,40,0.00,,,0.00,weatherlink.com 1.10,2013-05-11 18:05:00,
2013-05-11 13:20:00,50.0,23.0,30.12,NNW,340,9.0,24.0,35,0.00,,,0.00,weatherlink.com 1.10,2013-05-11 18:20:00,
2013-05-11 13:35:00,50.4,21.0,30.12,NNW,340,16.0,24.0,32,0.00,,,0.00,weatherlink.com 1.10,2013-05-11 18:35:00,
2013-05-11 13:50:00,50.3,22.0,30.12,NNW,338,9.0,23.0,33,0.00,,,0.00,weatherlink.com 1.10,2013-05-11 18:50:00,
2013-05-11 14:05:00,51.2,22.0,30.12,WNW,299,5.0,24.0,32,0.00,,,0.00,weatherlink.com 1.10,2013-05-11 19:05:00,
2013-05-11 14:20:00,50.8,20.0,30.12,NNW,341,13.0,25.0,30,0.00,,,0.00,weatherlink.com 1.10,2013-05-11 19:20:00,
2013-05-11 14:36:00,50.8,21.0,30.13,NW,320,10.0,25.0,31,0.00,,,0.00,weatherlink.com 1.10,2013-05-11 19:36:00,
2013-05-11 14:50:00,51.7,23.0,30.12,NW,314,10.0,25.0,32,0.00,,,0.00,weatherlink.com 1.10,2013-05-11 19:50:00,
2013-05-11 15:05:00,51.5,20.0,30.12,NW,326,13.0,28.0,29,0.00,,,0.00,weatherlink.com 1.10,2013-05-11 20:05:00,
2013-05-11 15:20:00,51.7,19.0,30.12,NNW,347,8.0,27.0,28,0.00,,,0.00,weatherlink.com 1.10,2013-05-11 20:20:00,
2013-05-11 15:35:00,51.5,17.0,30.12,North,349,19.0,32.0,26,0.00,,,0.00,weatherlink.com 1.10,2013-05-11 20:35:00,
2013-05-11 15:50:00,52.1,20.0,30.12,NW,310,14.0,22.0,28,0.00,,,0.00,weatherlink.com 1.10,2013-05-11 20:50:00,
2013-05-11 16:05:00,51.4,16.0,30.12,NNW,327,13.0,32.0,24,0.00,,,0.00,weatherlink.com 1.10,2013-05-11 21:05:00,
2013-05-11 16:20:00,52.2,16.0,30.12,North,355,6.0,25.0,24,0.00,,,0.00,weatherlink.com 1.10,2013-05-11 21:20:00,
2013-05-11 16:35:00,52.2,16.0,30.12,North,350,17.0,24.0,24,0.00,,,0.00,weatherlink.com 1.10,2013-05-11 21:35:00,
2013-05-11 16:50:00,52.1,15.0,30.12,NW,319,12.0,25.0,23,0.00,,,0.00,weatherlink.com 1.10,2013-05-11 21:50:00,
2013-05-11 17:05:00,52.1,16.0,30.12,North,350,13.0,23.0,24,0.00,,,0.00,weatherlink.com 1.10,2013-05-11 22:05:00,
2013-05-11 17:20:00,52.4,14.0,30.13,NNW,342,8.0,27.0,22,0.00,,,0.00,weatherlink.com 1.10,2013-05-11 22:20:00,
2013-05-11 17:35:00,52.2,14.0,30.13,NW,325,8.0,21.0,22,0.00,,,0.00,weatherlink.com 1.10,2013-05-11 22:35:00,
2013-05-11 17:50:00,51.8,16.0,30.13,NNW,333,8.0,28.0,24,0.00,,,0.00,weatherlink.com 1.10,2013-05-11 22:50:00,
2013-05-11 18:05:00,51.7,16.0,30.14,North,350,19.0,23.0,24,0.00,,,0.00,weatherlink.com 1.10,2013-05-11 23:05:00,
2013-05-11 18:21:00,51.2,17.0,30.14,NNW,334,15.0,20.0,26,0.00,,,0.00,weatherlink.com 1.10,2013-05-11 23:21:00,
2013-05-11 18:36:00,51.0,17.0,30.14,NNE,18,15.0,23.0,26,0.00,,,0.00,weatherlink.com 1.10,2013-05-11 23:36:00,
2013-05-11 18:51:00,50.5,17.0,30.14,NW,323,13.0,29.0,27,0.00,,,0.00,weatherlink.com 1.10,2013-05-11 23:51:00,
2013-05-11 19:06:00,50.3,18.0,30.14,WNW,302,9.0,17.0,28,0.00,,,0.00,weatherlink.com 1.10,2013-05-12 00:06:00,
2013-05-11 19:21:00,49.6,18.0,30.14,NW,322,6.0,21.0,28,0.00,,,0.00,weatherlink.com 1.10,2013-05-12 00:21:00,
2013-05-11 19:36:00,49.1,18.0,30.14,NNW,345,4.0,18.0,29,0.00,,,0.00,weatherlink.com 1.10,2013-05-12 00:36:00,
2013-05-11 19:51:00,48.7,19.0,30.14,NNE,19,8.0,13.0,31,0.00,,,0.00,weatherlink.com 1.10,2013-05-12 00:51:00,
2013-05-11 20:06:00,48.3,18.0,30.14,NW,318,6.0,18.0,30,0.00,,,0.00,weatherlink.com 1.10,2013-05-12 01:06:00,
2013-05-11 20:21:00,47.6,17.0,30.15,NW,319,9.0,14.0,30,0.00,,,0.00,weatherlink.com 1.10,2013-05-12 01:21:00,
2013-05-11 20:36:00,47.0,18.0,30.15,NNW,345,6.0,16.0,32,0.00,,,0.00,weatherlink.com 1.10,2013-05-12 01:36:00,
2013-05-11 20:51:00,46.4,19.0,30.16,NNW,328,9.0,12.0,34,0.00,,,0.00,weatherlink.com 1.10,2013-05-12 01:51:00,
2013-05-11 21:06:00,46.0,18.0,30.16,North,351,9.0,12.0,33,0.00,,,0.00,weatherlink.com 1.10,2013-05-12 02:06:00,
2013-05-11 21:21:00,45.4,18.0,30.16,NNW,340,8.0,12.0,34,0.00,,,0.00,weatherlink.com 1.10,2013-05-12 02:21:00,
2013-05-11 21:36:00,44.9,19.0,30.17,NW,322,4.0,9.0,36,0.00,,,0.00,weatherlink.com 1.10,2013-05-12 02:36:00,
2013-05-11 21:51:00,44.1,20.0,30.17,NNW,327,4.0,8.0,39,0.00,,,0.00,weatherlink.com 1.10,2013-05-12 02:51:00,
2013-05-11 22:06:00,43.1,20.0,30.18,NNW,343,0.0,8.0,40,0.00,,,0.00,weatherlink.com 1.10,2013-05-12 03:06:00,
2013-05-11 22:21:00,42.7,20.0,30.18,NNW,331,2.0,8.0,41,0.00,,,0.00,weatherlink.com 1.10,2013-05-12 03:21:00,
2013-05-11 22:36:00,42.3,21.0,30.18,NW,326,4.0,8.0,42,0.00,,,0.00,weatherlink.com 1.10,2013-05-12 03:36:00,
2013-05-11 22:51:00,41.6,20.0,30.18,NW,325,1.0,4.0,43,0.00,,,0.00,weatherlink.com 1.10,2013-05-12 03:51:00,
2013-05-11 23:06:00,41.1,21.0,30.19,NW,322,2.0,5.0,44,0.00,,,0.00,weatherlink.com 1.10,2013-05-12 04:06:00,
2013-05-11 23:21:00,40.9,21.0,30.19,NNW,337,4.0,8.0,46,0.00,,,0.00,weatherlink.com 1.10,2013-05-12 04:21:00,
2013-05-11 23:36:00,40.6,21.0,30.19,NNW,338,1.0,8.0,46,0.00,,,0.00,weatherlink.com 1.10,2013-05-12 04:36:00,
2013-05-11 23:51:00,40.4,21.0,30.19,NNW,330,0.0,6.0,46,0.00,,,0.00,weatherlink.com 1.10,2013-05-12 04:51:00,